Location: Bennemühlen
(52.5740°N, 9.7135°E)
Time: 02:07:01
(UTC+00:00)

Vanguard 2 Rocket - Pass Details

Date: 21 February 2026
Orbit: 553 x 3287 km, 32.9° (Epoch: 5 March)

Event Time Altitude Azimuth Distance (km) Brightness Sun altitude
Rises 08:07:20 0° 183° (S) 7,050 11.9 13.0°
Reaches altitude 10° 08:15:56 10° 162° (SSE) 6,218 12.3 14.0°
Maximum altitude 08:23:58 14° 138° (SE) 5,830 13.8 14.9°
Drops below altitude 10° 08:31:37 10° 114° (ESE) 5,939 12.7 15.8°
Sets 08:39:14 0° 93° (E) 6,533 12.0 16.6°
